Location: Unspecified
(0.0000°N, 0.0000°E)
Time: 02:29:32
(UTC+00:00)

NOSS 3-2 (C) - Pass Details

Date: 10 June 2023
Orbit: 728 x 1484 km, 63.4° (Epoch: 24 September)

Event Time Altitude Azimuth Distance (km) Brightness Sun altitude
Rises 02:58:49 0° 351° (N) 4,414 7.1 -40.7°
Reaches altitude 10° 03:01:48 10° 357° (N) 3,508 6.6 -40.1°
Maximum altitude 03:10:11 46° 68° (ENE) 1,897 5.2 -38.3°
Drops below altitude 10° 03:18:43 10° 138° (SE) 3,584 6.5 -36.4°
Sets 03:21:46 0° 143° (SE) 4,517 7.1 -35.8°
